Regional Weather Roundup
Issued by NWS

Home | Current Version | Previous Version | Graphics & Text | Print | Product List | Glossary On
Versions: 1 2 3 4 5 6 7 8 9 10 11 12 13 14 15 16 17 18 19 20 21 22 23 24 25 26 27 28 29 30 31 32 33 34 35 36 37 38 39 40 41 42 43 44 45 46 47 48 49 50
000
ASUS43 KLMK 300310
RWRKY
KENTUCKY REGIONAL WEATHER ROUNDUP
NATIONAL WEATHER SERVICE LOUISVILLE KY
1100 PM EDT SUN MAR 29 2015

NOTE "FAIR" INDICATES FEW OR NO CLOUDS BELOW 12,000 FEET
WITH NO SIGNIFICANT WEATHER AND/OR OBSTRUCTIONS TO VISIBILITY.

KYZ001>023-026-027-061>063-070>075-300400-
WESTERN AND SOUTH CENTRAL KENTUCKY

CITY           SKY/WX    TMP DP  RH WIND       PRES   REMARKS
PADUCAH        CLOUDY    56  47  71 W8        30.07R
HENDERSON      CLOUDY    54  41  62 SW9       30.05S
OWENSBORO      CLOUDY    54  45  71 W8        30.05R
HOPKINSVILLE   CLOUDY    58  42  54 SW13      30.06F
BOWLING GREEN  CLOUDY    56  36  47 S9        30.06F
GLASGOW        PTCLDY    55  34  46 SW13G20   30.06R
$$

KYZ024-025-028>034-038-045-046-053-300400-
NORTH CENTRAL KENTUCKY

CITY           SKY/WX    TMP DP  RH WIND       PRES   REMARKS
LOUISVILLE/SDF CLOUDY    57  35  43 SW14G22   30.01R
LOUISVILLE/LOU LGT RAIN  56  36  47 SW9       30.01R
FORT KNOX      LGT RAIN  55  37  52 SW10      30.00S
$$

KYZ035>037-039>044-047>052-055>060-089>105-300400-
NORTHEAST KENTUCKY

CITY           SKY/WX    TMP DP  RH WIND       PRES   REMARKS
LEXINGTON      CLOUDY    54  28  36 SW17      30.00S
COVINGTON      LGT RAIN  43  37  79 NW10      29.99R
FRANKFORT      CLOUDY    54  28  36 SW13      29.98R
$$

KYZ054-064>069-076>088-106>120-300400-
SOUTHEAST KENTUCKY

CITY           SKY/WX    TMP DP  RH WIND       PRES   REMARKS
JACKSON        MOCLDY    51  16  24 VRB7      30.02F
LONDON         PTCLDY    51  18  27 SW5       30.05S
SOMERSET       CLOUDY    52  23  32 SW7       30.08R
MIDDLESBORO    MOCLDY    54  25  32 S10G24    30.08F
MONTICELLO     MOCLDY    53  31  43 SW7       30.11R
$$




USA.gov is the U.S. government's official web portal to all federal, state and local government web resources and services.